Location: Curicchi
(45.0167°N, 12.0500°E)
Time: 17:49:03
(UTC+00:00)

SL-08 R/B - Pass Details

Date: 07 June 2020
Orbit: 674 x 739 km, 98.4° (Epoch: 03 July)

Event Time Altitude Azimuth Distance (km) Brightness Sun altitude
Exits shadow 01:55:01 - 166° (SSE) 2,646 5.9 -12.6°
Reaches altitude 10° 01:56:18 10° 167° (SSE) 2,116 5.4 -12.4°
Maximum altitude 02:00:56 84° 256° (WSW) 686 3.2 -11.9°
Drops below altitude 10° 02:05:34 10° 345° (NNW) 2,118 6.3 -11.4°
Sets 02:07:48 0° 346° (NNW) 3,037 7.1 -11.1°
